User: anonymous   Login
Location: Franzen
(48.6167°N, 15.3833°E)
Time: 03:13:21
(UTC+00:00)
Language:

Cosmos 1844 - Orbit

View from above orbital plane
View from above orbital plane
View from above satellite
View from above satellite

Ground track
Ground track

The orbit data is extracted from the following two-line orbital elements,

1 17973U 87041A   21174.37578329  .00000120  00000-0  87710-4 0  9996
2 17973  70.8989  61.2501 0029127  84.4308 276.0134 14.14119630760357
Epoch (UTC): 23 June 2021 09:01:07
Eccentricity: 0.0029127
inclination: 70.8989°
perigee height: 824 km
apogee height: 866 km
right ascension of ascending node: 61.2501°
argument of perigee: 84.4308°
revolutions per day: 14.14119630
mean anomaly at epoch: 276.0134°
orbit number at epoch: 76035

The dashed part of the orbit path shows where the satellite is in the earth's shadow,  

DLR